Location: Newark
(30.1000°N, 109.4667°E)
Time: 00:21:11
(UTC+00:00)

SR - Pass Details

Date: 19 February 2020
Orbit: 577 x 878 km, 66.7° (Epoch: 28 March)

Event Time Altitude Azimuth Distance (km) Brightness Sun altitude
Rises 08:31:17 0° 214° (SW) 3,394 ? 23.7°
Reaches altitude 10° 08:33:45 10° 218° (SW) 2,486 ? 23.2°
Maximum altitude 08:39:29 59° 297° (WNW) 1,009 ? 22.1°
Drops below altitude 10° 08:45:18 10° 16° (NNE) 2,523 ? 21.0°
Sets 08:47:49 0° 20° (NNE) 3,448 ? 20.5°
